Location: The Saddle
(36.8333°N, 80.3417°W)
Time: 19:31:02
(UTC-04:00)

ZACube-1 - Pass Details

Date: 27 March 2023
Orbit: 576 x 651 km, 97.7° (Epoch: 04 June)

Event Time Altitude Azimuth Distance (km) Brightness Sun altitude
Rises 04:51:51 0° 9° (N) 2,874 ? -28.3°
Reaches altitude 10° 04:54:04 10° 7° (N) 1,953 ? -27.9°
Enters shadow 04:56:20 31° 1° (N) 1,065 ? -27.5°
